Time,TemperatureF,DewpointF,PressureIn,WindDirection,WindDirectionDegrees,WindSpeedMPH,WindSpeedGustMPH,Humidity,HourlyPrecipIn,Conditions,Clouds,dailyrainin,SoftwareType,DateUTC
2013-03-30 00:02:00,39.0,30.0,30.14,ENE,76,0.0,2.0,69,0.00,,,0.00,,2013-03-30 05:02:00,
2013-03-30 00:12:00,39.0,30.0,30.14,ENE,76,0.0,2.0,69,0.00,,,0.00,,2013-03-30 05:12:00,
2013-03-30 00:22:00,39.0,30.0,30.14,ENE,76,0.0,2.0,70,0.00,,,0.00,,2013-03-30 05:22:00,
2013-03-30 00:32:00,38.0,29.0,30.14,ENE,76,0.0,0.0,71,0.00,,,0.00,,2013-03-30 05:32:00,
2013-03-30 00:42:00,38.0,29.0,30.14,ENE,76,0.0,0.0,71,0.00,,,0.00,,2013-03-30 05:42:00,
2013-03-30 00:52:00,38.0,30.0,30.14,ENE,74,0.0,3.0,73,0.00,,,0.00,,2013-03-30 05:52:00,
2013-03-30 01:02:00,38.0,30.0,30.14,East,88,0.0,3.0,74,0.00,,,0.00,,2013-03-30 06:02:00,
2013-03-30 01:11:00,38.0,30.0,30.14,East,88,0.0,3.0,74,0.00,,,0.00,,2013-03-30 06:11:00,
2013-03-30 01:22:00,37.0,29.0,30.14,SE,140,7.0,7.0,74,0.00,,,0.00,,2013-03-30 06:22:00,
2013-03-30 01:32:00,39.0,30.0,30.14,SE,134,8.0,9.0,69,0.00,,,0.00,,2013-03-30 06:32:00,
2013-03-30 01:42:00,39.0,30.0,30.14,SE,134,8.0,9.0,69,0.00,,,0.00,,2013-03-30 06:42:00,
2013-03-30 01:52:00,38.0,29.0,30.14,ESE,123,5.0,7.0,70,0.00,,,0.00,,2013-03-30 06:52:00,
2013-03-30 02:02:00,38.0,29.0,30.13,SE,130,6.0,8.0,69,0.00,,,0.00,,2013-03-30 07:02:00,
2013-03-30 02:12:00,38.0,29.0,30.13,SE,130,6.0,8.0,69,0.00,,,0.00,,2013-03-30 07:12:00,
2013-03-30 02:22:00,37.0,28.0,30.13,SE,130,5.0,6.0,71,0.00,,,0.00,,2013-03-30 07:22:00,
2013-03-30 02:32:00,37.0,29.0,30.12,ESE,118,6.0,7.0,72,0.00,,,0.00,,2013-03-30 07:32:00,
2013-03-30 02:42:00,37.0,29.0,30.12,ESE,118,6.0,7.0,72,0.00,,,0.00,,2013-03-30 07:42:00,
2013-03-30 02:52:00,37.0,29.0,30.11,SE,132,0.0,8.0,72,0.00,,,0.00,,2013-03-30 07:52:00,
2013-03-30 03:02:00,36.0,28.0,30.11,SE,128,5.0,6.0,73,0.00,,,0.00,,2013-03-30 08:02:00,
2013-03-30 03:12:00,36.0,28.0,30.11,SE,128,5.0,6.0,73,0.00,,,0.00,,2013-03-30 08:12:00,
2013-03-30 03:21:00,36.0,28.0,30.10,SE,127,4.0,5.0,73,0.00,,,0.00,,2013-03-30 08:21:00,
2013-03-30 03:32:00,36.0,28.0,30.10,SE,131,0.0,6.0,73,0.00,,,0.00,,2013-03-30 08:32:00,
2013-03-30 03:42:00,36.0,28.0,30.10,SE,131,0.0,6.0,73,0.00,,,0.00,,2013-03-30 08:42:00,
2013-03-30 03:53:00,36.0,28.0,30.10,SE,135,2.0,6.0,73,0.00,,,0.00,,2013-03-30 08:53:00,
2013-03-30 04:02:00,36.0,28.0,30.10,SE,130,1.0,5.0,72,0.00,,,0.00,,2013-03-30 09:02:00,
2013-03-30 04:12:00,36.0,28.0,30.10,SE,130,1.0,5.0,72,0.00,,,0.00,,2013-03-30 09:12:00,
2013-03-30 04:22:00,35.0,27.0,30.10,SE,129,0.0,1.0,73,0.00,,,0.00,,2013-03-30 09:22:00,
2013-03-30 04:33:00,35.0,28.0,30.09,SE,128,1.0,4.0,74,0.00,,,0.00,,2013-03-30 09:33:00,
2013-03-30 04:43:00,35.0,28.0,30.09,SE,128,1.0,4.0,74,0.00,,,0.00,,2013-03-30 09:43:00,
2013-03-30 04:53:00,35.0,28.0,30.09,East,90,2.0,5.0,74,0.00,,,0.00,,2013-03-30 09:53:00,
2013-03-30 05:02:00,35.0,28.0,30.09,East,90,0.0,0.0,75,0.00,,,0.00,,2013-03-30 10:02:00,
2013-03-30 05:13:00,35.0,28.0,30.09,East,90,0.0,0.0,75,0.00,,,0.00,,2013-03-30 10:13:00,
2013-03-30 05:23:00,34.0,27.0,30.08,SE,132,0.0,5.0,76,0.00,,,0.00,,2013-03-30 10:23:00,
2013-03-30 05:33:00,35.0,28.0,30.08,SE,134,0.0,5.0,75,0.00,,,0.00,,2013-03-30 10:33:00,
2013-03-30 05:42:00,35.0,28.0,30.08,SE,134,0.0,5.0,75,0.00,,,0.00,,2013-03-30 10:42:00,
2013-03-30 05:52:00,35.0,28.0,30.08,SE,140,0.0,5.0,75,0.00,,,0.00,,2013-03-30 10:52:00,
2013-03-30 06:03:00,35.0,27.0,30.07,SE,129,1.0,6.0,73,0.00,,,0.00,,2013-03-30 11:03:00,
2013-03-30 06:12:00,35.0,27.0,30.07,SE,129,1.0,6.0,73,0.00,,,0.00,,2013-03-30 11:12:00,
2013-03-30 06:22:00,35.0,27.0,30.07,SE,130,6.0,8.0,73,0.00,,,0.00,,2013-03-30 11:22:00,
2013-03-30 06:33:00,35.0,28.0,30.06,ESE,121,5.0,8.0,74,0.00,,,0.00,,2013-03-30 11:33:00,
2013-03-30 06:42:00,35.0,28.0,30.06,ESE,121,5.0,8.0,74,0.00,,,0.00,,2013-03-30 11:42:00,
2013-03-30 06:52:00,35.0,28.0,30.06,SE,126,5.0,8.0,75,0.00,,,0.00,,2013-03-30 11:52:00,
2013-03-30 07:02:00,35.0,28.0,30.06,SE,128,5.0,9.0,75,0.00,,,0.00,,2013-03-30 12:02:00,
2013-03-30 07:12:00,35.0,28.0,30.06,SE,128,5.0,9.0,75,0.00,,,0.00,,2013-03-30 12:12:00,
2013-03-30 07:22:00,35.0,28.0,30.05,SE,129,5.0,11.0,76,0.00,,,0.00,,2013-03-30 12:22:00,
2013-03-30 07:32:00,35.0,29.0,30.05,SE,130,7.0,9.0,77,0.00,,,0.00,,2013-03-30 12:32:00,
2013-03-30 07:42:00,35.0,29.0,30.05,SE,130,7.0,9.0,77,0.00,,,0.00,,2013-03-30 12:42:00,
2013-03-30 07:53:00,36.0,29.0,30.04,SE,127,7.0,8.0,77,0.00,,,0.00,,2013-03-30 12:53:00,
2013-03-30 08:02:00,36.0,29.0,30.03,SE,130,8.0,9.0,76,0.00,,,0.00,,2013-03-30 13:02:00,
2013-03-30 08:12:00,36.0,29.0,30.03,SE,130,8.0,9.0,76,0.00,,,0.00,,2013-03-30 13:12:00,
2013-03-30 08:22:00,37.0,30.0,30.04,SE,128,5.0,9.0,76,0.00,,,0.00,,2013-03-30 13:22:00,
2013-03-30 08:32:00,38.0,31.0,30.03,ESE,121,7.0,9.0,75,0.00,,,0.00,,2013-03-30 13:32:00,
2013-03-30 08:42:00,38.0,31.0,30.03,ESE,121,7.0,9.0,75,0.00,,,0.00,,2013-03-30 13:42:00,
2013-03-30 08:52:00,40.0,33.0,30.03,SE,144,6.0,12.0,75,0.00,,,0.00,,2013-03-30 13:52:00,
2013-03-30 09:02:00,42.0,34.0,30.03,SSE,153,5.0,10.0,73,0.00,,,0.00,,2013-03-30 14:02:00,
2013-03-30 09:11:00,42.0,34.0,30.03,SSE,153,5.0,10.0,73,0.00,,,0.00,,2013-03-30 14:11:00,
2013-03-30 09:22:00,43.0,35.0,30.02,SSE,148,7.0,10.0,72,0.00,,,0.00,,2013-03-30 14:22:00,
2013-03-30 09:32:00,43.0,35.0,30.02,SSE,154,7.0,12.0,72,0.00,,,0.00,,2013-03-30 14:32:00,
2013-03-30 09:42:00,43.0,35.0,30.02,SSE,154,7.0,12.0,72,0.00,,,0.00,,2013-03-30 14:42:00,
2013-03-30 09:52:00,44.0,36.0,30.01,SSE,153,8.0,15.0,72,0.00,,,0.00,,2013-03-30 14:52:00,
2013-03-30 10:02:00,45.0,36.0,30.01,SE,138,6.0,15.0,71,0.00,,,0.00,,2013-03-30 15:02:00,
2013-03-30 10:12:00,45.0,36.0,30.01,SE,138,6.0,15.0,71,0.00,,,0.00,,2013-03-30 15:12:00,
2013-03-30 10:22:00,46.0,37.0,30.01,SSE,151,7.0,14.0,71,0.00,,,0.00,,2013-03-30 15:22:00,
2013-03-30 10:33:00,48.0,38.0,30.00,South,175,5.0,15.0,69,0.00,,,0.00,,2013-03-30 15:33:00,
2013-03-30 10:43:00,48.0,38.0,30.00,South,175,5.0,15.0,69,0.00,,,0.00,,2013-03-30 15:43:00,
2013-03-30 10:53:00,50.0,39.0,30.00,SSE,148,12.0,14.0,66,0.00,,,0.00,,2013-03-30 15:53:00,
2013-03-30 11:03:00,50.0,39.0,29.99,SSE,148,6.0,13.0,65,0.00,,,0.00,,2013-03-30 16:03:00,
2013-03-30 11:13:00,50.0,39.0,29.99,SE,142,7.0,18.0,66,0.00,,,0.00,,2013-03-30 16:13:00,
2013-03-30 11:23:00,50.0,39.0,29.99,SE,142,7.0,18.0,66,0.00,,,0.00,,2013-03-30 16:23:00,
2013-03-30 11:33:00,49.0,38.0,29.98,SE,139,5.0,12.0,66,0.00,,,0.00,,2013-03-30 16:33:00,
2013-03-30 11:43:00,49.0,38.0,29.98,SE,139,5.0,12.0,66,0.00,,,0.00,,2013-03-30 16:43:00,
2013-03-30 11:52:00,50.0,39.0,29.97,SSE,150,11.0,20.0,66,0.00,,,0.00,,2013-03-30 16:52:00,
2013-03-30 12:02:00,51.0,40.0,29.96,South,169,10.0,23.0,65,0.00,,,0.00,,2013-03-30 17:02:00,
2013-03-30 12:13:00,51.0,40.0,29.96,South,169,10.0,23.0,65,0.00,,,0.00,,2013-03-30 17:13:00,
2013-03-30 12:22:00,53.0,41.0,29.96,SE,138,13.0,20.0,64,0.00,,,0.00,,2013-03-30 17:22:00,
2013-03-30 12:32:00,54.0,41.0,29.95,SSE,155,11.0,21.0,61,0.00,,,0.00,,2013-03-30 17:32:00,
2013-03-30 12:42:00,54.0,41.0,29.95,SSE,155,11.0,21.0,61,0.00,,,0.00,,2013-03-30 17:42:00,
2013-03-30 12:53:00,55.0,41.0,29.93,SE,146,9.0,17.0,58,0.00,,,0.00,,2013-03-30 17:53:00,
2013-03-30 13:03:00,56.0,41.0,29.93,SSE,160,10.0,19.0,56,0.00,,,0.00,,2013-03-30 18:03:00,
2013-03-30 13:12:00,56.0,40.0,29.92,SSE,167,8.0,21.0,55,0.00,,,0.00,,2013-03-30 18:12:00,
2013-03-30 13:22:00,56.0,40.0,29.92,SSE,167,8.0,21.0,55,0.00,,,0.00,,2013-03-30 18:22:00,
2013-03-30 13:32:00,56.0,39.0,29.91,SE,130,11.0,21.0,53,0.00,,,0.00,,2013-03-30 18:32:00,
2013-03-30 13:42:00,56.0,39.0,29.91,SE,130,11.0,21.0,53,0.00,,,0.00,,2013-03-30 18:42:00,
2013-03-30 13:53:00,55.0,40.0,29.91,South,189,12.0,21.0,56,0.00,,,0.00,,2013-03-30 18:53:00,
2013-03-30 14:02:00,55.0,40.0,29.90,SSE,150,8.0,21.0,56,0.00,,,0.00,,2013-03-30 19:02:00,
2013-03-30 14:13:00,55.0,40.0,29.90,SSE,150,8.0,21.0,56,0.00,,,0.00,,2013-03-30 19:13:00,
2013-03-30 14:22:00,54.0,40.0,29.90,SE,137,8.0,16.0,59,0.00,,,0.00,,2013-03-30 19:22:00,
2013-03-30 14:32:00,55.0,42.0,29.89,SE,142,7.0,18.0,61,0.00,,,0.00,,2013-03-30 19:32:00,
2013-03-30 14:42:00,55.0,42.0,29.89,SE,142,7.0,18.0,61,0.00,,,0.00,,2013-03-30 19:42:00,
2013-03-30 14:53:00,55.0,42.0,29.89,SE,142,7.0,18.0,61,0.00,,,0.00,,2013-03-30 19:53:00,
2013-03-30 15:02:00,56.0,43.0,29.89,SW,214,10.0,17.0,61,0.00,,,0.00,,2013-03-30 20:02:00,
2013-03-30 15:22:00,57.0,43.0,29.89,SSW,213,17.0,20.0,60,0.00,,,0.00,,2013-03-30 20:22:00,
2013-03-30 15:32:00,57.0,43.0,29.88,SSW,195,12.0,19.0,59,0.00,,,0.00,,2013-03-30 20:32:00,
2013-03-30 15:42:00,57.0,43.0,29.88,SSW,195,12.0,19.0,59,0.00,,,0.00,,2013-03-30 20:42:00,
2013-03-30 15:53:00,57.0,43.0,29.87,SSW,205,10.0,18.0,60,0.00,,,0.00,,2013-03-30 20:53:00,
2013-03-30 16:02:00,57.0,43.0,29.87,SSE,148,7.0,17.0,60,0.00,,,0.00,,2013-03-30 21:02:00,
2013-03-30 16:12:00,57.0,43.0,29.87,SSE,148,7.0,17.0,60,0.00,,,0.00,,2013-03-30 21:12:00,
2013-03-30 16:22:00,56.0,42.0,29.86,SSW,213,9.0,13.0,59,0.00,,,0.00,,2013-03-30 21:22:00,
2013-03-30 16:33:00,56.0,42.0,29.85,SSW,198,10.0,13.0,59,0.00,,,0.00,,2013-03-30 21:33:00,
2013-03-30 16:43:00,56.0,42.0,29.85,SSW,198,10.0,13.0,59,0.00,,,0.00,,2013-03-30 21:43:00,
2013-03-30 16:53:00,56.0,42.0,29.85,SW,222,15.0,17.0,60,0.00,,,0.00,,2013-03-30 21:53:00,
2013-03-30 17:03:00,55.0,41.0,29.84,SSW,213,11.0,20.0,59,0.00,,,0.00,,2013-03-30 22:03:00,
2013-03-30 17:13:00,55.0,41.0,29.84,SSW,213,11.0,20.0,59,0.00,,,0.00,,2013-03-30 22:13:00,
2013-03-30 17:23:00,55.0,41.0,29.83,SSW,209,14.0,20.0,59,0.00,,,0.00,,2013-03-30 22:23:00,
2013-03-30 17:33:00,55.0,41.0,29.83,SSW,198,11.0,17.0,59,0.00,,,0.00,,2013-03-30 22:33:00,
2013-03-30 17:43:00,55.0,41.0,29.83,SSW,198,11.0,17.0,59,0.00,,,0.00,,2013-03-30 22:43:00,
2013-03-30 17:53:00,55.0,42.0,29.82,SSW,200,5.0,12.0,61,0.00,,,0.00,,2013-03-30 22:53:00,
2013-03-30 18:02:00,54.0,42.0,29.82,South,190,8.0,16.0,64,0.00,,,0.00,,2013-03-30 23:02:00,
2013-03-30 18:12:00,54.0,42.0,29.82,South,190,8.0,16.0,64,0.00,,,0.00,,2013-03-30 23:12:00,
2013-03-30 18:22:00,54.0,42.0,29.82,SSW,202,9.0,14.0,64,0.00,,,0.00,,2013-03-30 23:22:00,
2013-03-30 18:32:00,54.0,43.0,29.82,SSW,207,10.0,12.0,66,0.00,,,0.00,,2013-03-30 23:32:00,
2013-03-30 18:42:00,54.0,43.0,29.82,SSW,207,10.0,12.0,66,0.00,,,0.00,,2013-03-30 23:42:00,
2013-03-30 18:52:00,53.0,43.0,29.81,SSW,206,5.0,8.0,69,0.00,,,0.00,,2013-03-30 23:52:00,
2013-03-30 19:02:00,53.0,43.0,29.81,SSW,200,9.0,9.0,70,0.00,,,0.00,,2013-03-31 00:02:00,
2013-03-30 19:12:00,53.0,43.0,29.81,SSW,200,9.0,9.0,70,0.00,,,0.00,,2013-03-31 00:12:00,
2013-03-30 19:22:00,52.0,43.0,29.80,South,182,2.0,8.0,71,0.00,,,0.00,,2013-03-31 00:22:00,
2013-03-30 19:32:00,52.0,43.0,29.80,SSW,200,0.0,7.0,72,0.00,,,0.00,,2013-03-31 00:32:00,
2013-03-30 19:42:00,52.0,43.0,29.80,SSW,200,0.0,7.0,72,0.00,,,0.00,,2013-03-31 00:42:00,
2013-03-30 19:53:00,52.0,44.0,29.81,SW,219,5.0,8.0,73,0.00,,,0.00,,2013-03-31 00:53:00,
2013-03-30 20:02:00,52.0,44.0,29.80,SSW,212,5.0,6.0,74,0.00,,,0.00,,2013-03-31 01:02:00,
2013-03-30 20:12:00,52.0,44.0,29.80,SSW,212,5.0,6.0,74,0.00,,,0.00,,2013-03-31 01:12:00,
2013-03-30 20:22:00,51.0,43.0,29.80,SW,219,6.0,7.0,75,0.00,,,0.00,,2013-03-31 01:22:00,
2013-03-30 20:32:00,51.0,44.0,29.80,SSW,202,6.0,8.0,76,0.00,,,0.00,,2013-03-31 01:32:00,
2013-03-30 20:42:00,51.0,44.0,29.80,SSW,202,6.0,8.0,76,0.00,,,0.00,,2013-03-31 01:42:00,
2013-03-30 20:53:00,50.0,43.0,29.80,SW,222,4.0,8.0,76,0.00,,,0.00,,2013-03-31 01:53:00,
2013-03-30 21:02:00,50.0,42.0,29.80,SW,217,4.0,9.0,75,0.00,,,0.00,,2013-03-31 02:02:00,
2013-03-30 21:12:00,50.0,42.0,29.80,SW,217,4.0,9.0,75,0.00,,,0.00,,2013-03-31 02:12:00,
2013-03-30 21:22:00,50.0,43.0,29.80,SSW,194,5.0,9.0,76,0.00,,,0.00,,2013-03-31 02:22:00,
2013-03-30 21:32:00,50.0,43.0,29.80,SW,231,8.0,9.0,76,0.00,,,0.00,,2013-03-31 02:32:00,
2013-03-30 21:42:00,50.0,43.0,29.80,SW,231,8.0,9.0,76,0.00,,,0.00,,2013-03-31 02:42:00,
2013-03-30 21:52:00,50.0,43.0,29.80,SW,231,8.0,9.0,76,0.00,,,0.00,,2013-03-31 02:52:00,
2013-03-30 22:02:00,50.0,43.0,29.80,SW,232,8.0,13.0,76,0.00,,,0.00,,2013-03-31 03:02:00,
2013-03-30 22:12:00,50.0,43.0,29.80,SW,232,8.0,13.0,76,0.00,,,0.00,,2013-03-31 03:12:00,
2013-03-30 22:22:00,50.0,43.0,29.80,SW,217,7.0,14.0,76,0.00,,,0.00,,2013-03-31 03:22:00,
2013-03-30 22:33:00,49.0,43.0,29.80,SW,234,4.0,15.0,80,0.00,,,0.00,,2013-03-31 03:33:00,
2013-03-30 22:43:00,49.0,43.0,29.80,SW,234,4.0,15.0,80,0.00,,,0.00,,2013-03-31 03:43:00,
2013-03-30 22:54:00,49.0,43.0,29.80,SW,234,6.0,13.0,81,0.00,,,0.00,,2013-03-31 03:54:00,
2013-03-30 23:02:00,48.0,-99.9,29.80,SW,215,10.0,14.0,84,0.00,,,0.00,,2013-03-31 04:02:00,
2013-03-30 23:13:00,48.0,43.0,29.80,SW,215,10.0,14.0,84,0.00,,,0.00,,2013-03-31 04:13:00,
2013-03-30 23:23:00,48.0,44.0,29.79,SW,222,12.0,14.0,87,0.00,,,0.00,,2013-03-31 04:23:00,
2013-03-30 23:32:00,47.0,44.0,29.79,SW,223,6.0,12.0,88,0.00,,,0.00,,2013-03-31 04:32:00,
2013-03-30 23:42:00,47.0,44.0,29.79,SW,223,6.0,12.0,88,0.00,,,0.00,,2013-03-31 04:42:00,
2013-03-30 23:52:00,47.0,44.0,29.79,SW,225,5.0,7.0,89,0.00,,,0.00,,2013-03-31 04:52:00,